N777TS ESSV-ENHD

Flight info

Callsign N777TS
Flight time 1h 11m
Altitude 43000
Route ROGMI3K ROGMI Z229 NILUG DCT ULVOS ULVOS1V
Aircraft C750/M-SBDE3FGHRWXY/S

Departure

Time 2026-05-06 17:32
Airport Visby Airport (ESSV)

Arrival

Time 2026-05-06 18:44
Airport Haugesund Airport, Karmøy (ENHD)
Time Latitude Longitude Altitude Speed Heading
2026-05-06 17:06 57.65915 18.33850 141 ft 0 kts 333°
2026-05-06 17:28 57.65915 18.33849 141 ft 0 kts 345°
2026-05-06 17:28 57.65918 18.33853 141 ft 2 kts 67°
2026-05-06 17:28 57.65933 18.33937 141 ft 8 kts 65°
2026-05-06 17:29 57.65980 18.34006 141 ft 8 kts 33°
2026-05-06 17:29 57.65998 18.34083 141 ft 6 kts 144°
2026-05-06 17:29 57.65954 18.34065 141 ft 5 kts 200°
2026-05-06 17:29 57.65890 18.34019 141 ft 15 kts 201°
2026-05-06 17:30 57.65773 18.33938 141 ft 18 kts 203°
2026-05-06 17:30 57.65644 18.33844 138 ft 21 kts 201°
2026-05-06 17:30 57.65519 18.33755 139 ft 17 kts 197°
2026-05-06 17:30 57.65425 18.33797 140 ft 11 kts 128°
2026-05-06 17:31 57.65420 18.33810 141 ft 0 kts 120°
2026-05-06 17:31 57.65419 18.33950 141 ft 23 kts 64°
2026-05-06 17:32 57.65599 18.34131 141 ft 55 kts 21°
2026-05-06 17:32 57.66296 18.34637 139 ft 155 kts 24°
2026-05-06 17:32 57.67416 18.35445 882 ft 191 kts 24°
2026-05-06 17:32 57.68721 18.35900 1927 ft 204 kts 355°
2026-05-06 17:33 57.70025 18.34837 3004 ft 214 kts 334°
2026-05-06 17:33 57.71375 18.33576 4119 ft 230 kts 340°
2026-05-06 17:33 57.72855 18.32458 5349 ft 242 kts 341°
2026-05-06 17:33 57.74423 18.31379 6760 ft 245 kts 343°
2026-05-06 17:34 57.75977 18.30498 8368 ft 237 kts 347°
2026-05-06 17:34 57.77588 18.29573 8946 ft 272 kts 336°
2026-05-06 17:34 57.79449 18.27934 9047 ft 309 kts 339°
2026-05-06 17:34 57.81403 18.26580 8952 ft 289 kts 340°
2026-05-06 17:35 57.83322 18.25247 9243 ft 309 kts 340°
2026-05-06 17:35 57.85314 18.23875 10635 ft 311 kts 340°
2026-05-06 17:35 57.87376 18.22465 11654 ft 324 kts 339°
2026-05-06 17:36 57.91792 18.19409 13312 ft 355 kts 338°
2026-05-06 17:36 57.94106 18.17810 14310 ft 364 kts 338°
2026-05-06 17:36 57.96493 18.16157 15502 ft 370 kts 337°
2026-05-06 17:36 57.98888 18.14497 16660 ft 376 kts 336°
2026-05-06 17:37 58.01355 18.12784 17747 ft 383 kts 336°
2026-05-06 17:37 58.03838 18.11055 18771 ft 389 kts 335°
2026-05-06 17:37 58.06356 18.09297 19743 ft 394 kts 335°
2026-05-06 17:37 58.08928 18.07499 20526 ft 399 kts 335°
2026-05-06 17:38 58.11572 18.05648 21272 ft 405 kts 335°
2026-05-06 17:38 58.14206 18.03806 21988 ft 410 kts 335°
2026-05-06 17:38 58.16855 18.01951 22685 ft 414 kts 335°
2026-05-06 17:38 58.19603 18.00191 23354 ft 423 kts 342°
2026-05-06 17:39 58.22543 17.99577 24004 ft 433 kts 350°
2026-05-06 17:39 58.25548 17.99007 24642 ft 437 kts 349°
2026-05-06 17:39 58.28576 17.98461 25250 ft 443 kts 349°
2026-05-06 17:39 58.31655 17.97889 25872 ft 448 kts 349°
2026-05-06 17:40 58.34759 17.97316 26452 ft 453 kts 349°
2026-05-06 17:40 58.37907 17.96730 26969 ft 459 kts 349°
2026-05-06 17:40 58.41045 17.96142 27515 ft 464 kts 349°
2026-05-06 17:40 58.44278 17.95536 27944 ft 471 kts 349°
2026-05-06 17:41 58.47604 17.94907 27987 ft 487 kts 349°
2026-05-06 17:41 58.51008 17.94265 27992 ft 496 kts 349°
2026-05-06 17:41 58.54526 17.93614 27990 ft 502 kts 349°
2026-05-06 17:41 58.58107 17.92933 28241 ft 502 kts 349°
2026-05-06 17:42 58.61621 17.92277 28998 ft 496 kts 349°
2026-05-06 17:42 58.65035 17.91632 29917 ft 491 kts 349°
2026-05-06 17:42 58.68465 17.90979 30488 ft 493 kts 349°
2026-05-06 17:42 58.71870 17.90329 30866 ft 499 kts 349°
2026-05-06 17:43 58.75315 17.89488 31335 ft 496 kts 341°
2026-05-06 17:43 58.78457 17.86914 31862 ft 476 kts 319°
2026-05-06 17:43 58.80776 17.82670 32607 ft 454 kts 301°
2026-05-06 17:43 58.82381 17.77556 33325 ft 435 kts 285°
2026-05-06 17:44 58.83253 17.72087 33995 ft 427 kts 278°
2026-05-06 17:44 58.83959 17.66540 34664 ft 424 kts 277°
2026-05-06 17:44 58.84582 17.61072 35237 ft 420 kts 276°
2026-05-06 17:44 58.85184 17.55593 35614 ft 419 kts 276°
2026-05-06 17:45 58.85777 17.50086 35958 ft 420 kts 276°
2026-05-06 17:45 58.86377 17.44529 36282 ft 420 kts 277°
2026-05-06 17:45 58.86961 17.39064 36564 ft 422 kts 277°
2026-05-06 17:45 58.87557 17.33497 36883 ft 421 kts 276°
2026-05-06 17:46 58.88139 17.27991 37165 ft 422 kts 276°
2026-05-06 17:46 58.88726 17.22454 37434 ft 422 kts 277°
2026-05-06 17:46 58.89315 17.16860 37690 ft 424 kts 277°
2026-05-06 17:46 58.89901 17.11274 37933 ft 426 kts 277°
2026-05-06 17:47 58.90481 17.05701 38205 ft 426 kts 277°
2026-05-06 17:47 58.91058 17.00160 38467 ft 426 kts 278°
2026-05-06 17:47 58.91642 16.94515 38753 ft 426 kts 278°
2026-05-06 17:47 58.92213 16.88957 39030 ft 428 kts 278°
2026-05-06 17:48 58.92795 16.83303 39285 ft 429 kts 278°
2026-05-06 17:48 58.93367 16.77696 39557 ft 430 kts 278°
2026-05-06 17:48 58.93943 16.72006 39815 ft 431 kts 278°
2026-05-06 17:48 58.94520 16.66317 40081 ft 432 kts 278°
2026-05-06 17:49 58.95086 16.60665 40313 ft 433 kts 278°
2026-05-06 17:49 58.95656 16.54971 40564 ft 434 kts 278°
2026-05-06 17:49 58.96234 16.49189 40812 ft 434 kts 278°
2026-05-06 17:49 58.96801 16.43476 41047 ft 435 kts 278°
2026-05-06 17:50 58.97367 16.37732 41303 ft 434 kts 278°
2026-05-06 17:50 58.97936 16.31939 41538 ft 435 kts 277°
2026-05-06 17:50 58.98497 16.26185 41747 ft 437 kts 278°
2026-05-06 17:50 58.99057 16.20433 42050 ft 438 kts 278°
2026-05-06 17:51 58.99617 16.14656 42405 ft 437 kts 278°
2026-05-06 17:51 59.00176 16.08860 42754 ft 437 kts 278°
2026-05-06 17:51 59.00728 16.03074 42927 ft 441 kts 278°
2026-05-06 17:51 59.01281 15.97263 42936 ft 448 kts 278°
2026-05-06 17:52 59.02426 15.85159 42938 ft 463 kts 278°
2026-05-06 17:52 59.03593 15.72691 42941 ft 476 kts 278°
2026-05-06 17:53 59.04770 15.59995 42930 ft 485 kts 278°
2026-05-06 17:53 59.05944 15.47136 42923 ft 486 kts 278°
2026-05-06 17:54 59.07122 15.34141 42920 ft 487 kts 277°
2026-05-06 17:54 59.08281 15.21182 42928 ft 487 kts 277°
2026-05-06 17:55 59.09427 15.08190 42921 ft 487 kts 277°
2026-05-06 17:55 59.10563 14.95206 42919 ft 487 kts 277°
2026-05-06 17:56 59.11684 14.82194 42922 ft 487 kts 277°
2026-05-06 17:56 59.12782 14.69285 42920 ft 487 kts 277°
2026-05-06 17:57 59.13876 14.56282 42910 ft 488 kts 277°
2026-05-06 17:57 59.14965 14.43168 42908 ft 488 kts 277°
2026-05-06 17:58 59.16034 14.30125 42900 ft 489 kts 276°
2026-05-06 17:58 59.17091 14.17055 42905 ft 489 kts 277°
2026-05-06 17:59 59.18136 14.03993 42892 ft 489 kts 276°
2026-05-06 17:59 59.19165 13.90954 42896 ft 489 kts 276°
2026-05-06 18:00 59.20182 13.77867 42886 ft 489 kts 276°
2026-05-06 18:00 59.21194 13.64679 42884 ft 489 kts 276°
2026-05-06 18:01 59.22182 13.51622 42891 ft 488 kts 276°
2026-05-06 18:01 59.23155 13.38577 42890 ft 489 kts 276°
2026-05-06 18:02 59.24118 13.25472 42897 ft 489 kts 276°
2026-05-06 18:02 59.25077 13.12304 42897 ft 489 kts 276°
2026-05-06 18:03 59.26013 12.99224 42912 ft 489 kts 276°
2026-05-06 18:03 59.26937 12.86102 42911 ft 490 kts 276°
2026-05-06 18:04 59.27847 12.72968 42910 ft 490 kts 276°
2026-05-06 18:04 59.28745 12.59847 42907 ft 490 kts 276°
2026-05-06 18:05 59.29630 12.46683 42903 ft 490 kts 276°
2026-05-06 18:05 59.30504 12.33496 42905 ft 490 kts 275°
2026-05-06 18:06 59.31366 12.20291 42904 ft 490 kts 275°
2026-05-06 18:06 59.32214 12.07074 42907 ft 490 kts 275°
2026-05-06 18:07 59.33052 11.93797 42912 ft 490 kts 275°
2026-05-06 18:07 59.33874 11.80570 42908 ft 491 kts 275°
2026-05-06 18:08 59.34693 11.67153 42909 ft 491 kts 275°
2026-05-06 18:08 59.35493 11.53842 42907 ft 491 kts 275°
2026-05-06 18:09 59.36278 11.40514 42913 ft 491 kts 275°
2026-05-06 18:09 59.37047 11.27237 42919 ft 491 kts 274°
2026-05-06 18:10 59.37801 11.13974 42917 ft 492 kts 274°
2026-05-06 18:10 59.38553 11.00541 42911 ft 491 kts 274°
2026-05-06 18:11 59.39281 10.87215 42912 ft 491 kts 275°
2026-05-06 18:11 59.40000 10.73827 42909 ft 491 kts 275°
2026-05-06 18:12 59.40702 10.60507 42914 ft 491 kts 275°
2026-05-06 18:12 59.41390 10.47184 42914 ft 491 kts 275°
2026-05-06 18:13 59.42065 10.33854 42910 ft 491 kts 274°
2026-05-06 18:13 59.42684 10.21352 42913 ft 491 kts 274°
2026-05-06 18:14 59.43333 10.07986 42907 ft 492 kts 274°
2026-05-06 18:14 59.43968 9.94689 42908 ft 492 kts 274°
2026-05-06 18:15 59.44561 9.81957 42891 ft 493 kts 274°
2026-05-06 18:15 59.45170 9.68554 42879 ft 493 kts 274°
2026-05-06 18:16 59.45761 9.55202 42883 ft 492 kts 274°
2026-05-06 18:16 59.46257 9.43887 42881 ft 492 kts 274°
2026-05-06 18:17 59.46823 9.30528 42889 ft 491 kts 273°
2026-05-06 18:17 59.47098 9.23992 42683 ft 481 kts 273°
2026-05-06 18:17 59.47369 9.17456 41762 ft 478 kts 273°
2026-05-06 18:18 59.47633 9.11022 40615 ft 480 kts 273°
2026-05-06 18:18 59.47895 9.04492 39439 ft 481 kts 272°
2026-05-06 18:18 59.48154 8.97988 38379 ft 477 kts 272°
2026-05-06 18:18 59.48405 8.91586 37463 ft 473 kts 272°
2026-05-06 18:19 59.48657 8.85202 36571 ft 468 kts 272°
2026-05-06 18:19 59.48904 8.78831 35631 ft 463 kts 272°
2026-05-06 18:19 59.49136 8.72654 34641 ft 458 kts 271°
2026-05-06 18:19 59.49367 8.66486 33604 ft 454 kts 271°
2026-05-06 18:20 59.49589 8.60399 32554 ft 448 kts 271°
2026-05-06 18:20 59.49810 8.54404 31997 ft 426 kts 271°
2026-05-06 18:20 59.50019 8.48759 31880 ft 398 kts 270°
2026-05-06 18:20 59.50201 8.43514 31858 ft 371 kts 270°
2026-05-06 18:21 59.50547 8.33433 31903 ft 382 kts 269°
2026-05-06 18:21 59.50724 8.28129 31899 ft 394 kts 270°
2026-05-06 18:21 59.50888 8.23288 31929 ft 403 kts 270°
2026-05-06 18:22 59.51266 8.11996 31913 ft 422 kts 270°
2026-05-06 18:22 59.51648 8.00268 31908 ft 438 kts 270°
2026-05-06 18:23 59.52029 7.88103 31920 ft 452 kts 270°
2026-05-06 18:23 59.52412 7.75887 31407 ft 440 kts 270°
2026-05-06 18:24 59.52589 7.69972 30757 ft 437 kts 270°
2026-05-06 18:24 59.52756 7.63961 29987 ft 442 kts 271°
2026-05-06 18:24 59.52929 7.57992 29347 ft 442 kts 271°
2026-05-06 18:24 59.53080 7.51936 28518 ft 443 kts 269°
2026-05-06 18:25 59.52631 7.46201 27416 ft 419 kts 256°
2026-05-06 18:25 59.51838 7.40800 25276 ft 413 kts 259°
2026-05-06 18:25 59.51271 7.35631 24882 ft 375 kts 256°
2026-05-06 18:25 59.50574 7.30782 23077 ft 375 kts 256°
2026-05-06 18:26 59.49923 7.25915 21489 ft 380 kts 256°
2026-05-06 18:26 59.49237 7.20929 20726 ft 378 kts 256°
2026-05-06 18:26 59.48558 7.15979 20337 ft 375 kts 256°
2026-05-06 18:26 59.47885 7.11094 19975 ft 367 kts 256°
2026-05-06 18:27 59.47226 7.06323 19488 ft 365 kts 256°
2026-05-06 18:27 59.46557 7.01507 18958 ft 364 kts 256°
2026-05-06 18:27 59.45902 6.96769 18437 ft 363 kts 256°
2026-05-06 18:27 59.45239 6.92028 17922 ft 360 kts 256°
2026-05-06 18:28 59.44578 6.87303 17149 ft 358 kts 256°
2026-05-06 18:28 59.43927 6.82659 16356 ft 358 kts 256°
2026-05-06 18:28 59.43270 6.77977 15585 ft 356 kts 256°
2026-05-06 18:28 59.42606 6.73285 14834 ft 355 kts 256°
2026-05-06 18:29 59.41955 6.68682 14150 ft 352 kts 256°
2026-05-06 18:29 59.41331 6.64295 13942 ft 315 kts 256°
2026-05-06 18:29 59.40776 6.60409 13876 ft 282 kts 257°
2026-05-06 18:29 59.40266 6.56834 13446 ft 267 kts 257°
2026-05-06 18:30 59.39768 6.53329 12808 ft 271 kts 257°
2026-05-06 18:30 59.39258 6.49770 12322 ft 272 kts 257°
2026-05-06 18:30 59.38748 6.46216 11865 ft 271 kts 257°
2026-05-06 18:30 59.38235 6.42657 11413 ft 270 kts 257°
2026-05-06 18:31 59.37732 6.39151 10943 ft 269 kts 257°
2026-05-06 18:31 59.37225 6.35650 10274 ft 269 kts 258°
2026-05-06 18:31 59.36718 6.32151 9581 ft 270 kts 257°
2026-05-06 18:31 59.36207 6.28605 8909 ft 271 kts 257°
2026-05-06 18:32 59.35698 6.25096 8374 ft 269 kts 256°
2026-05-06 18:32 59.35194 6.21646 7930 ft 259 kts 257°
2026-05-06 18:32 59.34701 6.18278 7355 ft 259 kts 257°
2026-05-06 18:32 59.34209 6.14903 6842 ft 259 kts 257°
2026-05-06 18:33 59.33719 6.11571 6587 ft 247 kts 257°
2026-05-06 18:33 59.33256 6.08414 6281 ft 237 kts 257°
2026-05-06 18:33 59.32811 6.05376 5839 ft 234 kts 257°
2026-05-06 18:33 59.32362 6.02327 5360 ft 233 kts 257°
2026-05-06 18:34 59.31911 5.99290 4876 ft 232 kts 256°
2026-05-06 18:34 59.31113 5.96573 4385 ft 235 kts 235°
2026-05-06 18:34 59.30557 5.93748 4142 ft 218 kts 268°
2026-05-06 18:34 59.30349 5.90858 4108 ft 213 kts 260°
2026-05-06 18:35 59.30001 5.88082 4087 ft 208 kts 258°
2026-05-06 18:35 59.29633 5.85352 3986 ft 208 kts 258°
2026-05-06 18:35 59.29248 5.82592 3982 ft 209 kts 258°
2026-05-06 18:35 59.28867 5.79887 3982 ft 208 kts 258°
2026-05-06 18:36 59.28482 5.77156 3988 ft 209 kts 258°
2026-05-06 18:36 59.28095 5.74426 3988 ft 210 kts 258°
2026-05-06 18:36 59.27694 5.71670 4000 ft 210 kts 258°
2026-05-06 18:36 59.27312 5.68913 3989 ft 211 kts 258°
2026-05-06 18:37 59.26925 5.66141 3988 ft 207 kts 258°
2026-05-06 18:37 59.26542 5.63511 3982 ft 196 kts 258°
2026-05-06 18:37 59.26133 5.61010 3940 ft 194 kts 245°
2026-05-06 18:37 59.25292 5.58946 3961 ft 195 kts 227°
2026-05-06 18:38 59.24305 5.57142 3936 ft 196 kts 226°
2026-05-06 18:38 59.23328 5.55295 3935 ft 198 kts 227°
2026-05-06 18:38 59.22343 5.53381 3855 ft 197 kts 227°
2026-05-06 18:38 59.21375 5.51554 3765 ft 193 kts 229°
2026-05-06 18:39 59.20805 5.49298 3699 ft 187 kts 270°
2026-05-06 18:39 59.21148 5.46934 3682 ft 184 kts 311°
2026-05-06 18:39 59.22107 5.45227 3450 ft 190 kts 323°
2026-05-06 18:40 59.24074 5.41697 2953 ft 194 kts 317°
2026-05-06 18:40 59.24999 5.39877 2684 ft 185 kts 317°
2026-05-06 18:40 59.25887 5.38089 2372 ft 180 kts 316°
2026-05-06 18:40 59.26735 5.36386 2111 ft 174 kts 317°
2026-05-06 18:41 59.27571 5.34733 1848 ft 168 kts 315°
2026-05-06 18:41 59.28368 5.33141 1604 ft 163 kts 316°
2026-05-06 18:41 59.29150 5.31579 1400 ft 157 kts 315°
2026-05-06 18:41 59.29881 5.30112 1222 ft 146 kts 315°
2026-05-06 18:42 59.30540 5.28800 1015 ft 126 kts 315°
2026-05-06 18:42 59.31139 5.27609 849 ft 119 kts 314°
2026-05-06 18:42 59.31710 5.26486 681 ft 116 kts 314°
2026-05-06 18:42 59.32275 5.25335 532 ft 119 kts 315°
2026-05-06 18:43 59.32859 5.24159 374 ft 121 kts 314°
2026-05-06 18:43 59.33450 5.23008 228 ft 120 kts 313°
2026-05-06 18:43 59.34029 5.21840 82 ft 114 kts 313°
2026-05-06 18:43 59.34519 5.20855 73 ft 89 kts 313°
2026-05-06 18:44 59.34878 5.20107 55 ft 47 kts 315°
2026-05-06 18:44 59.35011 5.19851 50 ft 13 kts 336°
2026-05-06 18:44 59.35029 5.19800 49 ft 10 kts 124°
2026-05-06 18:44 59.34983 5.19922 52 ft 13 kts 135°
2026-05-06 18:45 59.34901 5.20087 55 ft 20 kts 133°
2026-05-06 18:45 59.34787 5.20315 60 ft 26 kts 134°
2026-05-06 18:45 59.34647 5.20597 69 ft 31 kts 134°
2026-05-06 18:45 59.34477 5.20937 73 ft 38 kts 135°
2026-05-06 18:46 59.34340 5.21215 70 ft 12 kts 129°
2026-05-06 18:46 59.34360 5.21322 70 ft 9 kts 45°
2026-05-06 18:46 59.34412 5.21424 69 ft 11 kts 45°
2026-05-06 18:46 59.34393 5.21514 69 ft 9 kts 139°
2026-05-06 18:47 59.34348 5.21606 70 ft 9 kts 129°
2026-05-06 18:47 59.34302 5.21710 71 ft 10 kts 133°
2026-05-06 18:47 59.34278 5.21821 72 ft 10 kts 53°
2026-05-06 18:47 59.34310 5.21886 71 ft 2 kts 45°